New Orleans, LA

3:54 PM CST on February 06, 2016 (GMT -0600)
Lakefront

Weather History for KNEW - January, 2012

Change the Weather History Date:

Friday, January 13, 2012

  Actual Average Record
Temperature  
Mean Temperature 44 °F 53 °F  
Max Temperature 51 °F 62 °F 82 °F (1972)
Min Temperature 37 °F 44 °F 15 °F (1962)
Degree Days  
Heating Degree Days 21 12  
Month to date heating degree days 99 156  
Since 1 July heating degree days 501 637  
Cooling Degree Days 0 0  
Month to date cooling degree days 12 10  
Year to date cooling degree days 12 10  
Moisture  
Dew Point 20 °F    
Average Humidity 37    
Maximum Humidity 48    
Minimum Humidity 26    
Precipitation  
Precipitation 0.00 in 0.17 in 2.73 in (1947)
Month to date precipitation 0.03 2.14  
Year to date precipitation 0.03 2.14  
Snow  
Snow 0.00 in - - ()
Month to date snowfall 0.0  
Since 1 July snowfall 0.0  
Snow Depth 0.00 in    
Sea Level Pressure  
Sea Level Pressure 30.27 in    
Wind  
Wind Speed 7 mph (NW)    
Max Wind Speed 18 mph    
Max Gust Speed 25 mph    
Visibility 10 miles    
Events      
T = Trace of Precipitation, MM = Missing Value Source: NWS Daily Summary

Daily Weather History Graph

Daily Weather History Graph

Search for Another Location

Airport or City:

Trip Planner

Search our weather history database for the weather conditions in past years. The results will help you decide how hot, cold, wet, or windy it might be!

Date:

Astronomy

Jan. 13, 2012 Rise Set
Actual Time 6:57 AM CST 5:20 PM CST
Civil Twilight 6:31 AM CST 5:46 PM CST
Nautical Twilight 6:01 AM CST 6:15 PM CST
Astronomical Twilight 5:32 AM CST 6:44 PM CST
Moon 10:06 PM CST (1/13) 9:35 AM CST (1/13)
Length of Visible Light 11h 15m
Length of Day
10h 23m
Waning Gibbous, 78% of the Moon is Illuminated
Jan 13
Waning Gibbous
Jan 16
Last Quarter
Jan 23
New
Jan 30
First Quarter
Feb 7
Full

Hourly Weather History & Observations

Time (CST) Temp. Windchill Dew Point Humidity Pressure Visibility Wind Dir Wind Speed Gust Speed Precip Events Conditions
12:53 AM 42.1 °F 32.3 °F 21.9 °F 45% 30.21 in 10.0 mi NNW 24.2 mph 32.2 mph N/A   Clear
1:53 AM 41.0 °F 30.9 °F 21.0 °F 45% 30.21 in 10.0 mi NNW 24.2 mph - N/A   Clear
2:53 AM 39.9 °F 29.5 °F 19.9 °F 45% 30.21 in 10.0 mi NNW 24.2 mph - N/A   Clear
3:53 AM 39.9 °F 30.5 °F 19.0 °F 43% 30.23 in 10.0 mi NNW 19.6 mph - N/A   Clear
4:53 AM 39.0 °F 29.9 °F 18.0 °F 43% 30.24 in 10.0 mi NNW 17.3 mph - N/A   Clear
5:53 AM 39.0 °F 29.9 °F 18.0 °F 43% 30.24 in 10.0 mi NNW 17.3 mph 21.9 mph N/A   Clear
6:53 AM 39.0 °F 30.6 °F 18.0 °F 43% 30.26 in 10.0 mi North 15.0 mph - N/A   Clear
7:53 AM 39.9 °F 32.1 °F 17.1 °F 40% 30.27 in 10.0 mi North 13.8 mph 20.7 mph N/A   Clear
8:53 AM 41.0 °F 35.8 °F 16.0 °F 36% 30.31 in 10.0 mi North 8.1 mph - N/A   Clear
9:53 AM 43.0 °F 38.2 °F 17.1 °F 35% 30.32 in 10.0 mi NNW 8.1 mph - N/A   Clear
10:53 AM 43.0 °F 38.2 °F 18.0 °F 37% 30.32 in 10.0 mi NNW 8.1 mph - N/A   Clear
11:53 AM 43.0 °F 38.2 °F 16.0 °F 34% 30.27 in 10.0 mi NNW 8.1 mph - N/A   Clear
12:53 PM 44.1 °F 39.0 °F 18.0 °F 35% 30.25 in 10.0 mi WNW 9.2 mph - N/A   Clear
1:53 PM 45.0 °F 40.6 °F 19.9 °F 37% 30.25 in 10.0 mi West 8.1 mph - N/A   Clear
2:53 PM 45.0 °F 38.9 °F 21.0 °F 39% 30.23 in 10.0 mi West 12.7 mph - N/A   Clear
3:53 PM 46.9 °F - 21.0 °F 36% 30.25 in 10.0 mi West 8.1 mph - N/A   Clear
4:53 PM 48.0 °F - 19.0 °F 32% 30.25 in 10.0 mi WNW 9.2 mph - N/A   Clear
5:53 PM 48.0 °F - 19.9 °F 33% 30.27 in 10.0 mi WNW 9.2 mph - N/A   Clear
6:53 PM 48.0 °F - 21.0 °F 34% 30.30 in 10.0 mi West 9.2 mph - N/A   Clear
7:53 PM 48.0 °F - 19.9 °F 33% 30.32 in 10.0 mi NW 8.1 mph - N/A   Clear
8:53 PM 46.0 °F 41.0 °F 21.9 °F 39% 30.33 in 10.0 mi WSW 10.4 mph - N/A   Clear
9:53 PM 46.9 °F - 28.0 °F 48% 30.34 in 10.0 mi West 11.5 mph - N/A   Clear
10:53 PM 45.0 °F 40.1 °F 27.0 °F 49% 30.32 in 10.0 mi WSW 9.2 mph - N/A   Clear
11:53 PM 44.1 °F 40.1 °F 27.0 °F 51% 30.32 in 10.0 mi SW 6.9 mph - N/A   Clear